Time,TemperatureF,DewpointF,PressureIn,WindDirection,WindDirectionDegrees,WindSpeedMPH,WindSpeedGustMPH,Humidity,HourlyPrecipIn,Conditions,Clouds,dailyrainin,SoftwareType,DateUTC
2013-03-06 00:10:00,24.6,23.0,30.11,NW,323,0.0,0.0,93,0.00,,,0.00,weatherlink.com 1.10,2013-03-06 05:10:00,
2013-03-06 00:25:00,24.7,23.0,30.11,WNW,300,0.0,0.0,94,0.00,,,0.00,weatherlink.com 1.10,2013-03-06 05:25:00,
2013-03-06 00:40:00,25.1,24.0,30.12,West,273,0.0,0.0,95,0.00,,,0.00,weatherlink.com 1.10,2013-03-06 05:40:00,
2013-03-06 00:55:00,24.9,24.0,30.12,West,273,0.0,0.0,94,0.00,,,0.00,weatherlink.com 1.10,2013-03-06 05:55:00,
2013-03-06 01:10:00,25.4,24.0,30.12,NNW,336,0.0,0.0,95,0.00,,,0.00,weatherlink.com 1.10,2013-03-06 06:10:00,
2013-03-06 01:25:00,26.2,25.0,30.12,NNW,337,0.0,0.0,95,0.00,,,0.00,weatherlink.com 1.10,2013-03-06 06:25:00,
2013-03-06 01:40:00,27.5,26.0,30.12,NNE,13,1.0,2.0,95,0.00,,,0.00,weatherlink.com 1.10,2013-03-06 06:40:00,
2013-03-06 01:55:00,28.1,26.0,30.12,North,7,0.0,0.0,93,0.00,,,0.00,weatherlink.com 1.10,2013-03-06 06:55:00,
2013-03-06 02:10:00,27.9,26.0,30.11,NNE,22,0.0,1.0,93,0.00,,,0.00,weatherlink.com 1.10,2013-03-06 07:10:00,
2013-03-06 02:25:00,28.2,27.0,30.11,NNW,334,0.0,0.0,93,0.00,,,0.00,weatherlink.com 1.10,2013-03-06 07:25:00,
2013-03-06 02:40:00,28.9,27.0,30.11,NNW,331,0.0,2.0,92,0.00,,,0.00,weatherlink.com 1.10,2013-03-06 07:40:00,
2013-03-06 02:55:00,29.0,27.0,30.10,NNW,332,0.0,1.0,92,0.00,,,0.00,weatherlink.com 1.10,2013-03-06 07:55:00,
2013-03-06 03:10:00,29.4,27.0,30.10,NW,319,0.0,5.0,92,0.00,,,0.00,weatherlink.com 1.10,2013-03-06 08:10:00,
2013-03-06 03:25:00,29.7,27.0,30.11,WNW,296,0.0,3.0,91,0.00,,,0.00,weatherlink.com 1.10,2013-03-06 08:25:00,
2013-03-06 03:40:00,29.8,28.0,30.10,NNW,327,0.0,2.0,91,0.00,,,0.00,weatherlink.com 1.10,2013-03-06 08:40:00,
2013-03-06 03:55:00,29.7,27.0,30.11,NNW,327,0.0,2.0,91,0.00,,,0.00,weatherlink.com 1.10,2013-03-06 08:55:00,
2013-03-06 04:10:00,29.7,27.0,30.11,NNE,15,2.0,5.0,91,0.00,,,0.00,weatherlink.com 1.10,2013-03-06 09:10:00,
2013-03-06 04:25:00,29.6,27.0,30.11,NW,319,0.0,4.0,91,0.00,,,0.00,weatherlink.com 1.10,2013-03-06 09:25:00,
2013-03-06 04:40:00,29.4,27.0,30.11,NNW,336,0.0,3.0,92,0.00,,,0.00,weatherlink.com 1.10,2013-03-06 09:40:00,
2013-03-06 04:55:00,29.2,27.0,30.12,NNW,334,0.0,1.0,92,0.00,,,0.00,weatherlink.com 1.10,2013-03-06 09:55:00,
2013-03-06 05:10:00,29.1,27.0,30.12,North,352,2.0,3.0,92,0.00,,,0.00,weatherlink.com 1.10,2013-03-06 10:10:00,
2013-03-06 05:25:00,29.2,27.0,30.12,NNW,342,0.0,3.0,92,0.00,,,0.00,weatherlink.com 1.10,2013-03-06 10:25:00,
2013-03-06 05:40:00,29.2,27.0,30.13,NNW,331,0.0,3.0,92,0.00,,,0.00,weatherlink.com 1.10,2013-03-06 10:40:00,
2013-03-06 05:55:00,29.1,27.0,30.13,North,3,3.0,5.0,92,0.00,,,0.00,weatherlink.com 1.10,2013-03-06 10:55:00,
2013-03-06 06:10:00,29.0,27.0,30.13,North,352,1.0,4.0,93,0.00,,,0.00,weatherlink.com 1.10,2013-03-06 11:10:00,
2013-03-06 06:26:00,29.0,27.0,30.14,NNW,343,1.0,4.0,93,0.00,,,0.00,weatherlink.com 1.10,2013-03-06 11:26:00,
2013-03-06 06:41:00,29.3,28.0,30.14,NNW,343,1.0,4.0,93,0.00,,,0.00,weatherlink.com 1.10,2013-03-06 11:41:00,
2013-03-06 06:56:00,29.4,28.0,30.15,NW,312,0.0,4.0,93,0.00,,,0.00,weatherlink.com 1.10,2013-03-06 11:56:00,
2013-03-06 07:11:00,29.6,28.0,30.15,NNW,336,0.0,4.0,94,0.00,,,0.00,weatherlink.com 1.10,2013-03-06 12:11:00,
2013-03-06 07:26:00,29.8,28.0,30.15,North,359,1.0,4.0,93,0.00,,,0.00,weatherlink.com 1.10,2013-03-06 12:26:00,
2013-03-06 07:41:00,30.0,28.0,30.16,North,350,3.0,5.0,93,0.00,,,0.00,weatherlink.com 1.10,2013-03-06 12:41:00,
2013-03-06 07:56:00,30.2,29.0,30.16,NNW,346,1.0,4.0,93,0.00,,,0.00,weatherlink.com 1.10,2013-03-06 12:56:00,
2013-03-06 08:11:00,30.4,29.0,30.16,NNW,335,2.0,5.0,93,0.00,,,0.00,weatherlink.com 1.10,2013-03-06 13:11:00,
2013-03-06 08:26:00,30.8,29.0,30.16,NNW,340,1.0,4.0,92,0.00,,,0.00,weatherlink.com 1.10,2013-03-06 13:26:00,
2013-03-06 08:41:00,31.6,30.0,30.16,NNW,347,1.0,3.0,92,0.00,,,0.00,weatherlink.com 1.10,2013-03-06 13:41:00,
2013-03-06 08:56:00,32.2,30.0,30.16,NNW,328,2.0,5.0,92,0.00,,,0.00,weatherlink.com 1.10,2013-03-06 13:56:00,
2013-03-06 09:11:00,32.9,31.0,30.16,NNW,340,1.0,5.0,91,0.00,,,0.00,weatherlink.com 1.10,2013-03-06 14:11:00,
2013-03-06 09:26:00,33.6,31.0,30.16,NW,316,2.0,4.0,90,0.00,,,0.00,weatherlink.com 1.10,2013-03-06 14:26:00,
2013-03-06 09:41:00,34.4,32.0,30.16,North,355,1.0,5.0,89,0.00,,,0.00,weatherlink.com 1.10,2013-03-06 14:41:00,
2013-03-06 09:56:00,34.9,32.0,30.16,NW,323,0.0,2.0,89,0.00,,,0.00,weatherlink.com 1.10,2013-03-06 14:56:00,
2013-03-06 10:11:00,35.4,32.0,30.16,NNW,334,2.0,5.0,88,0.00,,,0.00,weatherlink.com 1.10,2013-03-06 15:11:00,
2013-03-06 10:26:00,36.0,33.0,30.16,NW,316,3.0,5.0,87,0.00,,,0.00,weatherlink.com 1.10,2013-03-06 15:26:00,
2013-03-06 10:41:00,36.7,33.0,30.15,NW,311,0.0,5.0,87,0.00,,,0.00,weatherlink.com 1.10,2013-03-06 15:41:00,
2013-03-06 10:56:00,38.5,34.0,30.14,NW,321,3.0,6.0,84,0.00,,,0.00,weatherlink.com 1.10,2013-03-06 15:56:00,
2013-03-06 11:11:00,39.6,34.0,30.15,NW,320,3.0,7.0,79,0.00,,,0.00,weatherlink.com 1.10,2013-03-06 16:11:00,
2013-03-06 11:26:00,38.7,32.0,30.14,NW,311,3.0,5.0,78,0.00,,,0.00,weatherlink.com 1.10,2013-03-06 16:26:00,
2013-03-06 11:41:00,38.2,32.0,30.14,NW,313,0.0,7.0,78,0.00,,,0.00,weatherlink.com 1.10,2013-03-06 16:41:00,
2013-03-06 11:56:00,38.8,33.0,30.14,NW,324,2.0,4.0,78,0.01,,,0.01,weatherlink.com 1.10,2013-03-06 16:56:00,
2013-03-06 12:11:00,40.2,33.0,30.14,NNW,344,1.0,7.0,74,0.01,,,0.01,weatherlink.com 1.10,2013-03-06 17:11:00,
2013-03-06 12:26:00,41.4,31.0,30.14,ENE,65,5.0,10.0,66,0.01,,,0.01,weatherlink.com 1.10,2013-03-06 17:26:00,
2013-03-06 12:42:00,42.2,31.0,30.13,ENE,64,6.0,9.0,65,0.01,,,0.01,weatherlink.com 1.10,2013-03-06 17:42:00,
2013-03-06 12:57:00,42.9,31.0,30.13,ESE,113,4.0,13.0,62,0.00,,,0.01,weatherlink.com 1.10,2013-03-06 17:57:00,
2013-03-06 13:12:00,42.9,30.0,30.13,NE,50,8.0,12.0,60,0.00,,,0.01,weatherlink.com 1.10,2013-03-06 18:12:00,
2013-03-06 13:27:00,42.6,29.0,30.12,NNE,32,2.0,11.0,58,0.00,,,0.01,weatherlink.com 1.10,2013-03-06 18:27:00,
2013-03-06 13:42:00,43.0,28.0,30.12,NNE,15,1.0,10.0,56,0.00,,,0.01,weatherlink.com 1.10,2013-03-06 18:42:00,
2013-03-06 13:57:00,42.6,27.0,30.12,East,84,7.0,12.0,55,0.00,,,0.01,weatherlink.com 1.10,2013-03-06 18:57:00,
2013-03-06 14:12:00,42.3,27.0,30.12,ESE,113,5.0,13.0,55,0.00,,,0.01,weatherlink.com 1.10,2013-03-06 19:12:00,
2013-03-06 14:27:00,42.0,27.0,30.13,NE,37,9.0,12.0,55,0.00,,,0.01,weatherlink.com 1.10,2013-03-06 19:27:00,
2013-03-06 14:42:00,41.3,26.0,30.14,ENE,57,6.0,13.0,56,0.00,,,0.01,weatherlink.com 1.10,2013-03-06 19:42:00,
2013-03-06 14:57:00,40.4,26.0,30.14,East,92,7.0,12.0,57,0.00,,,0.01,weatherlink.com 1.10,2013-03-06 19:57:00,
2013-03-06 15:12:00,40.1,27.0,30.14,East,81,5.0,11.0,59,0.00,,,0.01,weatherlink.com 1.10,2013-03-06 20:12:00,
2013-03-06 15:27:00,39.7,27.0,30.15,NE,48,4.0,13.0,61,0.00,,,0.01,weatherlink.com 1.10,2013-03-06 20:27:00,
2013-03-06 15:42:00,39.7,27.0,30.15,East,90,2.0,7.0,61,0.00,,,0.01,weatherlink.com 1.10,2013-03-06 20:42:00,
2013-03-06 15:57:00,39.7,27.0,30.15,NE,34,3.0,5.0,61,0.00,,,0.01,weatherlink.com 1.10,2013-03-06 20:57:00,
2013-03-06 16:12:00,39.7,27.0,30.15,NE,34,3.0,9.0,62,0.00,,,0.01,weatherlink.com 1.10,2013-03-06 21:12:00,
2013-03-06 16:27:00,39.7,27.0,30.15,NNE,22,2.0,6.0,61,0.00,,,0.01,weatherlink.com 1.10,2013-03-06 21:27:00,
2013-03-06 16:42:00,39.7,26.0,30.15,NE,41,4.0,6.0,58,0.00,,,0.01,weatherlink.com 1.10,2013-03-06 21:42:00,
2013-03-06 16:57:00,39.6,26.0,30.15,NNW,344,2.0,4.0,58,0.00,,,0.01,weatherlink.com 1.10,2013-03-06 21:57:00,
2013-03-06 17:12:00,39.6,26.0,30.15,NNW,347,1.0,3.0,58,0.00,,,0.01,weatherlink.com 1.10,2013-03-06 22:12:00,
2013-03-06 17:27:00,39.3,25.0,30.15,NNW,343,0.0,2.0,58,0.00,,,0.01,weatherlink.com 1.10,2013-03-06 22:27:00,
2013-03-06 17:42:00,39.1,26.0,30.16,NNW,342,0.0,2.0,59,0.00,,,0.01,weatherlink.com 1.10,2013-03-06 22:42:00,
2013-03-06 17:57:00,38.9,25.0,30.16,NNW,338,0.0,1.0,59,0.00,,,0.01,weatherlink.com 1.10,2013-03-06 22:57:00,
2013-03-06 18:12:00,38.5,26.0,30.16,NNW,338,0.0,1.0,60,0.00,,,0.01,weatherlink.com 1.10,2013-03-06 23:12:00,
2013-03-06 18:27:00,38.5,26.0,30.17,NNW,334,0.0,3.0,60,0.00,,,0.01,weatherlink.com 1.10,2013-03-06 23:27:00,
2013-03-06 18:42:00,38.2,26.0,30.17,NNW,331,0.0,1.0,61,0.00,,,0.01,weatherlink.com 1.10,2013-03-06 23:42:00,
2013-03-06 18:57:00,37.3,26.0,30.17,NNW,331,0.0,1.0,64,0.00,,,0.00,weatherlink.com 1.10,2013-03-06 23:57:00,
2013-03-06 19:12:00,37.6,26.0,30.17,NNW,332,0.0,3.0,63,0.00,,,0.00,weatherlink.com 1.10,2013-03-07 00:12:00,
2013-03-06 19:27:00,38.0,26.0,30.17,NNE,19,2.0,4.0,62,0.00,,,0.00,weatherlink.com 1.10,2013-03-07 00:27:00,
2013-03-06 19:42:00,37.7,26.0,30.18,ENE,60,2.0,6.0,64,0.00,,,0.00,weatherlink.com 1.10,2013-03-07 00:42:00,
2013-03-06 19:57:00,37.9,26.0,30.18,NNE,32,3.0,5.0,63,0.00,,,0.00,weatherlink.com 1.10,2013-03-07 00:57:00,
2013-03-06 20:12:00,38.0,26.0,30.18,NE,45,4.0,6.0,62,0.00,,,0.00,weatherlink.com 1.10,2013-03-07 01:12:00,
2013-03-06 20:27:00,38.1,26.0,30.18,North,5,1.0,7.0,63,0.00,,,0.00,weatherlink.com 1.10,2013-03-07 01:27:00,
2013-03-06 20:42:00,38.0,26.0,30.18,NNE,29,2.0,6.0,63,0.00,,,0.00,weatherlink.com 1.10,2013-03-07 01:42:00,
2013-03-06 20:57:00,37.8,27.0,30.18,NNE,29,1.0,6.0,64,0.00,,,0.00,weatherlink.com 1.10,2013-03-07 01:57:00,
2013-03-06 21:12:00,37.5,27.0,30.17,NE,38,2.0,4.0,65,0.00,,,0.00,weatherlink.com 1.10,2013-03-07 02:12:00,
2013-03-06 21:28:00,37.4,27.0,30.17,NE,44,4.0,8.0,65,0.00,,,0.00,weatherlink.com 1.10,2013-03-07 02:28:00,
2013-03-06 21:42:00,37.1,27.0,30.17,NNE,30,1.0,4.0,67,0.00,,,0.00,weatherlink.com 1.10,2013-03-07 02:42:00,
2013-03-06 21:57:00,36.8,27.0,30.17,NNE,32,1.0,6.0,68,0.00,,,0.00,weatherlink.com 1.10,2013-03-07 02:57:00,
2013-03-06 22:12:00,36.5,27.0,30.16,NNE,18,3.0,5.0,69,0.00,,,0.00,weatherlink.com 1.10,2013-03-07 03:12:00,
2013-03-06 22:27:00,36.2,27.0,30.16,NE,37,3.0,4.0,70,0.00,,,0.00,weatherlink.com 1.10,2013-03-07 03:27:00,
2013-03-06 22:42:00,36.1,27.0,30.16,NNE,31,2.0,4.0,70,0.00,,,0.00,weatherlink.com 1.10,2013-03-07 03:42:00,
2013-03-06 22:57:00,35.8,27.0,30.17,NNE,17,0.0,1.0,71,0.00,,,0.00,weatherlink.com 1.10,2013-03-07 03:57:00,
2013-03-06 23:12:00,35.6,27.0,30.17,West,271,0.0,0.0,71,0.00,,,0.00,weatherlink.com 1.10,2013-03-07 04:12:00,
2013-03-06 23:27:00,35.7,27.0,30.17,West,272,0.0,0.0,71,0.00,,,0.00,weatherlink.com 1.10,2013-03-07 04:27:00,
2013-03-06 23:42:00,35.6,27.0,30.17,West,275,0.0,0.0,72,0.00,,,0.00,weatherlink.com 1.10,2013-03-07 04:42:00,
2013-03-06 23:57:00,35.6,27.0,30.17,NW,317,0.0,1.0,72,0.00,,,0.00,weatherlink.com 1.10,2013-03-07 04:57:00,